Location: Eastchurch
(51.4000°N, 0.8667°E)
Time: 21:02:12
(UTC+00:00)

Cosmos 1603 - Pass Details

Date: 19 January 2026
Orbit: 831 x 857 km, 71.0° (Epoch: 16 February)

Event Time Altitude Azimuth Distance (km) Brightness Sun altitude
Rises 17:06:21 0° 197° (SSW) 3,385 7.5 -6.7°
Reaches altitude 10° 17:08:48 10° 195° (SSW) 2,451 6.7 -7.0°
Maximum altitude 17:14:20 65° 115° (ESE) 922 3.8 -7.8°
Drops below altitude 10° 17:19:54 10° 35° (NE) 2,454 5.6 -8.6°
Enters shadow 17:21:08 - 33° (NNE) 2,921 6.0 -8.8°
